Find Gao Fen 9-04

NORAD ID: 46025 Int'l Des: 2020-054 Owner: CNSAS Country: CN operational
LEOCIRCULARRETROGRADESSO

Live Position

Loading 3D Globe...

About Gao Fen 9-04

Description loading...

Upcoming Passes

Passes for default location (London). Set your location on the main map for personalized predictions.

Altitude History

Loading altitude history...

Two-Line Element Set

1 46025U 20054A 26107.25735088 .00006074 00000-0 17575-3 0 9997
2 46025 97.2473 177.1390 0009432 315.6589 44.3899 15.35930416317009
Epoch: Apr 17, 2026 • Age: 11 hours

Current Status

Altitude 468.4 km
Velocity 7.63 km/s
Sub-Earth Point -43.17°S, 84.56°E
Launch Date Aug 6, 2020
Age 5.6 years
Type other

Technical Details

Classification Payload
Mass 1700.00 kg
Dry Mass 1500.00 kg
Total Mass 1700.00 kg
Length 1.90 m
Diameter 1.50 m
Span 4.00 m
Shape Box+2 pan
Manufacturer DFHZ
Bus Type CAST-3000
Phase Status In Orbit
Owner/State CNSAS/CN

Most Searched